Content
SEND FEEDBACK

Daily
Averages
Monthly
Summary
Spain

PUERTO DEL ROSARIO, SPAIN


Home > Europe > Spain
Elevation: 98 feet     Latitude: 28 27N     Longitude: 013 52W

WEATHER
 
SELECT A DAY
Number of Records: 221,735;   Date Range: 7/1/96 - 12/19/14
 
SHARE

PRINT THIS DATA

[ ← Previous Day ]
WEATHER ALMANAC - JANUARY 16, 2013
[ Next Day → ]
[ °C ]   °F
Weather ElementAverageHighLow
Temperature63.6 °F66.2 °F (12:30 pm)60.8 °F (7:00 am)
Dewpoint55.6 °F57.2 °F (9:30 am)53.6 °F (8:30 pm)
Humidity75.3 %82 % (7:00 am)68 % (12:30 pm)
Barometer30.29 in30.33 in (9:30 am)30.27 in (7:00 am)
Wind Speed5.3 mph9.2 mph (7:00 am)
Weather ElementAverage
Visibility6.2 mi
Wind DirectionE (89.4 °)

Weather ElementTotal
Precipitation---
Heating Degree Days1.5 (Base 65)
Growing Degree Days13.5 (Base 50)
Averaged from 32 records on January 16, 2013
WEATHER CONDITIONS BREAKOUT
WIND DIRECTION BREAKOUT
WEATHER BY HOUR - JANUARY 16, 2013
[ °C ]   °F
Local TimeTemperatureDewpointHumidityBarometerVisibilityWind DirectionWind SpeedGust SpeedPrecipitationEventsConditions
7:00 AM60.8 °F55.4 °F82 %30.27 in6.2 miNE (50°)9.2 mphPartly Cloudy
7:30 AM60.8 °F55.4 °F82 %30.27 in6.2 miNE (50°)9.2 mphPartly Cloudy
8:00 AM60.8 °F55.4 °F82 %30.30 in6.2 miENE (60°)8.1 mphPartly Cloudy
8:30 AM62.6 °F55.4 °F77 %30.30 in6.2 miENE (60°)5.8 mphPartly Cloudy
9:00 AM62.6 °F55.4 °F77 %30.30 in6.2 miENE (60°)4.6 mphPartly Cloudy
9:30 AM64.4 °F57.2 °F77 %30.33 in6.2 miNE (50°)4.6 mphPartly Cloudy
10:00 AM64.4 °F55.4 °F73 %30.33 in6.2 miENE (70°)3.5 mphPartly Cloudy
10:30 AM64.4 °F55.4 °F73 %30.33 in6.2 miENE (60°)4.6 mphPartly Cloudy
11:00 AM64.4 °F57.2 °F77 %30.33 in6.2 miVariable2.3 mphPartly Cloudy
12:00 PM64.4 °F55.4 °F73 %30.30 in6.2 miVariable2.3 mphPartly Cloudy
12:30 PM66.2 °F55.4 °F68 %30.30 in6.2 miVariable2.3 mphPartly Cloudy
1:00 PM66.2 °F55.4 °F68 %30.30 inVariable2.3 mphClear
1:30 PM66.2 °F57.2 °F73 %30.27 inENE (70°)3.5 mphClear
2:00 PM66.2 °F55.4 °F68 %30.27 inENE (60°)4.6 mphClear
2:30 PM66.2 °F57.2 °F73 %30.27 inENE (60°)6.9 mphClear
3:00 PM66.2 °F55.4 °F68 %30.27 inNE (50°)6.9 mphClear
3:30 PM66.2 °F57.2 °F73 %30.27 in6.2 miNE (40°)6.9 mphPartly Cloudy
4:00 PM64.4 °F57.2 °F77 %30.27 in6.2 miNE (50°)6.9 mphPartly Cloudy
4:30 PM66.2 °F57.2 °F73 %30.27 in6.2 miNE (50°)8.1 mphPartly Cloudy
5:00 PM64.4 °F57.2 °F77 %30.27 in6.2 miNE (40°)8.1 mphPartly Cloudy
5:30 PM64.4 °F55.4 °F73 %30.27 in6.2 miNE (50°)6.9 mphPartly Cloudy
6:00 PM64.4 °F55.4 °F73 %30.30 in6.2 miNE (40°)6.9 mphPartly Cloudy
6:30 PM64.4 °F55.4 °F73 %30.30 in6.2 miNE (50°)6.9 mphPartly Cloudy
7:00 PM62.6 °F55.4 °F77 %30.30 in6.2 miNE (50°)5.8 mphPartly Cloudy
7:30 PM62.6 °F55.4 °F77 %30.30 in6.2 miNE (50°)3.5 mphPartly Cloudy
8:00 PM62.6 °F55.4 °F77 %30.30 in6.2 miNE (40°)3.5 mphPartly Cloudy
8:30 PM60.8 °F53.6 °F77 %30.30 in6.2 miNNE (30°)3.5 mphPartly Cloudy
9:00 PM60.8 °F53.6 °F77 %30.30 in6.2 miNNW (330°)3.5 mphPartly Cloudy
9:30 PM60.8 °F53.6 °F77 %30.30 in6.2 miNNW (340°)4.6 mphPartly Cloudy
10:00 PM60.8 °F55.4 °F82 %30.30 in6.2 miNNW (340°)4.6 mphPartly Cloudy
10:30 PM60.8 °F53.6 °F77 %30.30 in6.2 miNNW (330°)4.6 mphPartly Cloudy
11:00 PM60.8 °F53.6 °F77 %30.30 in6.2 miNNW (330°)4.6 mphPartly Cloudy
Hourly data recorded from GCFV, located miles away from Puerto del Rosario, Spain







STORIES FROM OUR PARTNERS